Location: Wildlife_Club
(35.6000°N, 81.4330°W)
Time: 05:05:51
(UTC-04:00)

A-11 Canister half - Pass Details

Date: 19 August 2020
Orbit: 1514 x 1686 km, 47.2° (Epoch: 23 September)

Event Time Altitude Azimuth Distance (km) Brightness Sun altitude
Rises 23:57:48 0° 302° (WNW) 4,849 12.4 -37.1°
Reaches altitude 10° 00:00:59 10° 298° (WNW) 3,881 11.6 -37.4°
Enters shadow 00:09:22 51° 246° (WSW) 2,026 9.4 -38.2°
